TimeICT,TemperatureF,Dew PointF,Humidity,Sea Level PressureIn,VisibilityMPH,Wind Direction,Wind SpeedMPH,Gust SpeedMPH,PrecipitationIn,Events,Conditions,WindDirDegrees,DateUTC
12:00 AM,80.6,75.2,84,29.83,2.5,Calm,Calm,-,N/A,,Mist,0,2013-02-26 17:00:00
12:30 AM,80.6,73.4,79,29.83,2.5,Calm,Calm,-,N/A,,Mostly Cloudy,0,2013-02-26 17:30:00
1:30 AM,80.6,73.4,79,29.83,2.5,Calm,Calm,-,N/A,,Mostly Cloudy,0,2013-02-26 18:30:00
2:00 AM,80.6,73.4,79,29.80,2.5,Calm,Calm,-,N/A,,Mostly Cloudy,0,2013-02-26 19:00:00
2:30 AM,80.6,73.4,79,29.80,2.5,Calm,Calm,-,N/A,,Mostly Cloudy,0,2013-02-26 19:30:00
3:00 AM,80.6,73.4,79,29.77,2.5,Calm,Calm,-,N/A,,Mostly Cloudy,0,2013-02-26 20:00:00
3:30 AM,80.6,73.4,79,29.77,2.5,Calm,Calm,-,N/A,,Mostly Cloudy,0,2013-02-26 20:30:00
4:00 AM,78.8,73.4,83,29.77,2.5,Calm,Calm,-,N/A,,Mostly Cloudy,0,2013-02-26 21:00:00
4:30 AM,78.8,75.2,89,29.77,2.5,Calm,Calm,-,N/A,,Mostly Cloudy,0,2013-02-26 21:30:00
5:00 AM,78.8,73.4,83,29.77,2.5,Calm,Calm,-,N/A,,Mostly Cloudy,0,2013-02-26 22:00:00
5:30 AM,78.8,73.4,83,29.77,2.5,Calm,Calm,-,N/A,,Mostly Cloudy,0,2013-02-26 22:30:00
6:00 AM,78.8,73.4,83,29.80,2.5,Calm,Calm,-,N/A,,Mostly Cloudy,0,2013-02-26 23:00:00
6:30 AM,77.0,73.4,89,29.80,2.5,SSW,5.8,-,N/A,,Mostly Cloudy,210,2013-02-26 23:30:00
7:00 AM,77.0,73.4,89,29.83,1.9,Calm,Calm,-,N/A,,Mostly Cloudy,0,2013-02-27 00:00:00
7:30 AM,77.0,73.4,89,29.83,1.9,NNW,3.5,-,N/A,,Mostly Cloudy,340,2013-02-27 00:30:00
8:00 AM,80.6,75.2,84,29.83,1.9,SSW,4.6,-,N/A,,Mostly Cloudy,210,2013-02-27 01:00:00
8:30 AM,84.2,75.2,74,29.86,1.9,SSW,4.6,-,N/A,,Mostly Cloudy,210,2013-02-27 01:30:00
9:00 AM,84.2,73.4,70,29.86,2.5,South,6.9,-,N/A,,Mostly Cloudy,180,2013-02-27 02:00:00
9:30 AM,86.0,75.2,70,29.86,2.5,South,9.2,-,N/A,,Mostly Cloudy,190,2013-02-27 02:30:00
10:00 AM,86.0,73.4,66,29.86,2.5,South,9.2,-,N/A,,Mostly Cloudy,190,2013-02-27 03:00:00
10:30 AM,87.8,75.2,66,29.86,3.1,SSE,9.2,-,N/A,,Mostly Cloudy,160,2013-02-27 03:30:00
11:00 AM,87.8,75.2,66,29.86,3.1,South,9.2,-,N/A,,Mostly Cloudy,180,2013-02-27 04:00:00
11:30 AM,87.8,75.2,66,29.86,3.1,South,9.2,-,N/A,,Haze,180,2013-02-27 04:30:00
12:00 PM,87.8,75.2,66,29.86,3.1,SSE,9.2,-,N/A,,Haze,160,2013-02-27 05:00:00
12:30 PM,89.6,75.2,62,29.86,3.1,South,9.2,-,N/A,,Haze,170,2013-02-27 05:30:00
1:00 PM,87.8,75.2,66,29.83,3.7,South,9.2,-,N/A,,Mostly Cloudy,180,2013-02-27 06:00:00
1:30 PM,89.6,75.2,62,29.83,3.7,South,9.2,-,N/A,,Mostly Cloudy,190,2013-02-27 06:30:00
2:00 PM,89.6,75.2,62,29.80,3.7,South,9.2,-,N/A,,Mostly Cloudy,190,2013-02-27 07:00:00
2:30 PM,89.6,75.2,62,29.80,3.7,South,11.5,-,N/A,,Mostly Cloudy,180,2013-02-27 07:30:00
3:00 PM,89.6,75.2,62,29.80,3.7,South,6.9,-,N/A,,Mostly Cloudy,180,2013-02-27 08:00:00
3:30 PM,87.8,75.2,66,29.77,3.7,South,11.5,-,N/A,,Mostly Cloudy,190,2013-02-27 08:30:00
4:00 PM,86.0,75.2,70,29.77,3.7,SSW,11.5,-,N/A,,Mostly Cloudy,200,2013-02-27 09:00:00
4:30 PM,86.0,75.2,70,29.74,3.7,SSW,9.2,-,N/A,,Mostly Cloudy,200,2013-02-27 09:30:00
5:00 PM,86.0,75.2,70,29.74,3.7,South,11.5,-,N/A,,Mostly Cloudy,180,2013-02-27 10:00:00
5:30 PM,84.2,75.2,74,29.74,3.7,SSW,9.2,-,N/A,,Mostly Cloudy,200,2013-02-27 10:30:00
6:00 PM,84.2,75.2,74,29.74,3.7,SSW,9.2,-,N/A,,Mostly Cloudy,210,2013-02-27 11:00:00
6:30 PM,84.2,75.2,74,29.77,3.7,South,6.9,-,N/A,,Mostly Cloudy,190,2013-02-27 11:30:00
7:00 PM,82.4,75.2,79,29.77,3.7,South,9.2,-,N/A,,Mostly Cloudy,180,2013-02-27 12:00:00
7:30 PM,82.4,75.2,79,29.77,3.7,South,9.2,-,N/A,,Mostly Cloudy,180,2013-02-27 12:30:00
8:00 PM,82.4,73.4,74,29.80,3.7,South,9.2,-,N/A,,Mostly Cloudy,170,2013-02-27 13:00:00
8:30 PM,82.4,75.2,79,29.80,3.7,South,6.9,-,N/A,,Mostly Cloudy,190,2013-02-27 13:30:00
9:00 PM,82.4,73.4,74,29.80,3.7,South,6.9,-,N/A,,Mostly Cloudy,190,2013-02-27 14:00:00
9:30 PM,82.4,73.4,74,29.83,3.7,SSW,6.9,-,N/A,,Mostly Cloudy,200,2013-02-27 14:30:00
10:00 PM,82.4,75.2,79,29.83,3.7,SSW,6.9,-,N/A,,Mostly Cloudy,200,2013-02-27 15:00:00
10:30 PM,82.4,75.2,79,29.83,3.7,SSW,4.6,-,N/A,,Mostly Cloudy,200,2013-02-27 15:30:00
11:00 PM,80.6,75.2,84,29.83,3.7,SSW,4.6,-,N/A,,Mostly Cloudy,210,2013-02-27 16:00:00
11:30 PM,80.6,75.2,84,29.80,3.7,South,4.6,-,N/A,,Scattered Clouds,190,2013-02-27 16:30:00